This is the latest recevied weather packets stored in our database for station/object NK7I. If no packets are shown the sender has not sent any weather packets the latest 10 day(s).
| Time | Temp. | Humidity | Pressure | Rain* | Wind** | Luminosity | Snow |
|---|---|---|---|---|---|---|---|
| 1777825582 | 15° C | 57% | 1014.3 hPa | 0 mm | - | 909 W/m² | - |
| 1777825283 | 15° C | 59% | 1014.4 hPa | 0 mm | - | 888 W/m² | - |
| 1777824982 | 14.44° C | 64% | 1014.4 hPa | 0 mm | - | 775 W/m² | - |
| 1777824682 | 14.44° C | 64% | 1014.5 hPa | 0 mm | - | 624 W/m² | - |
| 1777824382 | 13.89° C | 65% | 1014.5 hPa | 0 mm | - | 545 W/m² | - |
| 1777824082 | 13.89° C | 63% | 1014.7 hPa | 0 mm | - | 515 W/m² | - |
| 1777823782 | 13.33° C | 65% | 1014.8 hPa | 0 mm | - | 526 W/m² | - |
| 1777823482 | 13.33° C | 65% | 1014.8 hPa | 0 mm | - | 571 W/m² | - |
| 1777823182 | 12.78° C | 66% | 1014.8 hPa | 0 mm | - | 598 W/m² | - |
| 1777822882 | 12.78° C | 66% | 1014.9 hPa | 0 mm | - | 605 W/m² | - |
| 1777822582 | 12.22° C | 70% | 1015 hPa | 0 mm | - | 610 W/m² | - |
| 1777822282 | 12.22° C | 70% | 1015 hPa | 0 mm | - | 587 W/m² | - |
| 1777821982 | 11.67° C | 70% | 1015.1 hPa | 0 mm | - | 517 W/m² | - |
| 1777821682 | 11.67° C | 70% | 1015.1 hPa | 0 mm | - | 533 W/m² | - |
| 1777821383 | 11.11° C | 73% | 1015.1 hPa | 0 mm | - | 587 W/m² | - |
| 1777821082 | 11.11° C | 75% | 1015.1 hPa | 0 mm | - | 601 W/m² | - |
| 1777820782 | 10.56° C | 78% | 1015.1 hPa | 0 mm | - | 578 W/m² | - |
| 1777820484 | 10° C | 76% | 1015.2 hPa | 0 mm | - | 555 W/m² | - |
| 1777820182 | 9.44° C | 77% | 1015.1 hPa | 0 mm | - | 533 W/m² | - |
| 1777819882 | 8.89° C | 78% | 1015.1 hPa | 0 mm | - | 508 W/m² | - |
| 1777819582 | 7.78° C | 82% | 1015.2 hPa | 0 mm | - | 457 W/m² | - |
| 1777819282 | 7.22° C | 83% | 1015.2 hPa | 0 mm | - | 185 W/m² | - |
| 1777818982 | 6.67° C | 84% | 1015.2 hPa | 0 mm | - | 98 W/m² | - |
| 1777818683 | 6.67° C | 85% | 1015.2 hPa | 0 mm | - | 139 W/m² | - |
| 1777818382 | 6.11° C | 85% | 1015.3 hPa | 0 mm | - | 77 W/m² | - |
* Rain latest hour (hover to see other rain measurements)
** Current wind speed in m/s (hover to see current wind gust speed)